Showing default

QZS-6, 62876

Orbit data source: Space-Track

QZS-6, 62876 is a Japanese payload satellite in GEO that was launched on Sun, 02 Feb 2025 UTC via a H3-22S launch vehicle from the Tanegashima Space Center (TNSTA). Payload-class satellites include a variety of spacecraft equipped with specific instruments for various scientific and technological missions. These include communications satellites like Starlink; space stations such as the ISS; scientific satellites like the Hubble; Earth observation satellites from companies like Planet Labs, Umbra, and HawkEye 360; GPS; miniature CubeSats for education and research; and military/defense satellites.

Not visible in the next 10 days
Identifier
62876, 2025-023A
Orbit
GEO
Country
Flag of JPJP / JPN
Related business
Manufacturer
MELCO
Mission
Operational Civil Nav/Com
Bus & Motor
QZSS, LAPS-500?
Mass
4,900 kg wet, ~2,000 kg dry
Launch date (UTC)
2025-02-02 (9 months ago)
Launch vehicle
H3-22S
Launch site
Tanegashima Space Center (TNSTA)
Object type
Payload
Rocket body
Debris
Shape & HBR
Box + 2 Pan, 22.5 m
Radar Cross Section
39.598 m²

Expand to show TLE details & history
Last TLE update: 13 hours ago

TLE from 13 hours ago
0 QZS-6
1 62876U 25023A   25298.18239303 -.00000221  00000-0  00000-0 0  9992
2 62876   0.0537  23.0329 0001365 195.0502 331.9595  1.00270193  2608
Epoch: 2025-10-25T04:22Z
TLE epoch observation values (Epoch: 2025-10-25T04:22:38.757Z)
Latitude
-0.01424°
Longitude
90.52141°
Altitude
35,781.431 km
Speed
3.075 km/s
True Right ascension
12h 39m 59s
True Declination
0° 00' 51"
Sunlit
Object was in daylight at epoch
Visualization orbit readout
Latitude
Unknown
Longitude
Unknown
Altitude
Unknown
Speed
Unknown
Apparent Right ascension
Unknown
Apparent Declination
Unknown
Sunlit
N/A
Visualization observer readout
Local Sidereal Time
12:09:33
Azimuth
Unknown
Elevation
Unknown
Doppler factor
Unknown
Orbital elements
Apogee altitude
35,793.867 km
Perigee altitude
35,782.356 km
Semi-major axis
42,166.249 km
Eccentricity
0.00014
Inclination
0.0537°
RAAN
23.0329°
Arg. of periapsis
195.0502°
True anomaly
331.95215°
Mean anomaly
331.9595°
Eccentric anomaly
331.95582°
Mean motion
0.25067 °/min
Orbital period
1,436.17 mins
BSTAR
0
Loading maneuver chart data...
Computing Atmospheric mass density...
Loading historical data...
Loading historical data...
Loading historical data...
Loading historical data...
Loading historical data...
Loading historical data...
Loading historical data...
Other satellites on launch #23 in the year 2025 (2025-02-02 UTC)

Documentation

Showing up to 5 results
|